When you browse on this site, cookies collect data to enhance your experience and personalize the content and advertising you see.
Visit our Privacy Policy to learn more. By continuing to use the site, you agree to this use of cookies and data.
  • In Hungary
  • List of Countries
  • For 7 days
  • Water Temperature
  • Satellite Maps
  • Weather Map
  • News
  • Weather Widgets
  • user-avatar
    Login

    Hourly Weather Santa Bárbara

    Today, 24 April, Wednesday

    Time Temperature Precipitation Wind Pressure Humidity
    00:00 +22°C° 0 mm 0 mps 721 mmHg 95%
    01:00 +22°C° 0 mm 0 mps 721 mmHg 94%
    02:00 +22°C° 0 mm 0 mps 721 mmHg 93%
    03:00 +22°C° 0 mm 0 mps 721 mmHg 93%
    04:00 +22°C° 0 mm 0 mps 721 mmHg 92%
    05:00 +22°C° 0 mm 0 mps 721 mmHg 91%
    06:00 +22°C° 0 mm 0 mps 721 mmHg 90%
    07:00 +25°C° 0 mm 0 mps 722 mmHg 77%
    08:00 +28°C° 0 mm 0 mps 722 mmHg 65%
    09:00 +31°C° 0 mm 0 mps 722 mmHg 52%
    10:00 +34°C° 0 mm 1 mps 722 mmHg 46%
    11:00 +36°C° 0 mm 1 mps 722 mmHg 40%
    12:00 +39°C° 0 mm 1 mps 722 mmHg 34%
    13:00 +37°C° 0 mm 1 mps 721 mmHg 34%
    14:00 +36°C° 0 mm 1 mps 720 mmHg 35%
    15:00 +36°C° 0 mm 1 mps 719 mmHg 35%
    16:00 +34°C° 0 mm 1 mps 719 mmHg 43%
    17:00 +32°C° 0 mm 1 mps 719 mmHg 50%
    18:00 +30°C° 0 mm 1 mps 719 mmHg 58%
    19:00 +29°C° 0.1 mm 1 mps 719 mmHg 67%
    20:00 +25°C° 0.1 mm 0 mps 720 mmHg 76%
    21:00 +24°C° 0.1 mm 0 mps 720 mmHg 84%
    22:00 +23°C° 0.1 mm 0 mps 720 mmHg 86%
    23:00 +23°C° 0.1 mm 0 mps 720 mmHg 88%

    Tomorrow, 25 April, Thursday

    Time Temperature Precipitation Wind Pressure Humidity
    00:00 +23°C° 0.1 mm 0 mps 720 mmHg 90%
    01:00 +23°C° 0 mm 0 mps 720 mmHg 90%
    02:00 +22°C° 0 mm 0 mps 720 mmHg 90%
    03:00 +22°C° 0 mm 0 mps 719 mmHg 91%
    04:00 +22°C° 0 mm 0 mps 720 mmHg 89%
    05:00 +24°C° 0 mm 1 mps 720 mmHg 88%
    06:00 +24°C° 0 mm 1 mps 720 mmHg 87%
    07:00 +27°C° 0 mm 1 mps 721 mmHg 73%
    08:00 +31°C° 0 mm 1 mps 721 mmHg 59%
    09:00 +34°C° 0 mm 1 mps 722 mmHg 45%
    10:00 +37°C° 0 mm 1 mps 721 mmHg 37%
    11:00 +38°C° 0 mm 0 mps 721 mmHg 30%
    12:00 +40°C° 0 mm 0 mps 721 mmHg 23%
    13:00 +40°C° 0 mm 0 mps 720 mmHg 22%
    14:00 +43°C° 0 mm 1 mps 720 mmHg 21%
    15:00 +43°C° 0 mm 1 mps 719 mmHg 20%
    16:00 +40°C° 0 mm 1 mps 719 mmHg 28%
    17:00 +36°C° 0 mm 1 mps 719 mmHg 37%
    18:00 +33°C° 0 mm 1 mps 719 mmHg 45%
    19:00 +32°C° 0 mm 1 mps 720 mmHg 51%
    20:00 +29°C° 0 mm 0 mps 720 mmHg 58%
    21:00 +28°C° 0 mm 0 mps 721 mmHg 64%
    22:00 +27°C° 0 mm 0 mps 721 mmHg 67%
    23:00 +27°C° 0 mm 0 mps 721 mmHg 70%

    Day after tomorrow, 26 April, Friday

    Time Temperature Precipitation Wind Pressure Humidity
    00:00 +26°C° 0 mm 0 mps 721 mmHg 72%
    01:00 +26°C° 0.2 mm 0 mps 721 mmHg 76%
    02:00 +25°C° 0.2 mm 0 mps 720 mmHg 79%
    03:00 +24°C° 0.2 mm 0 mps 720 mmHg 82%
    04:00 +24°C° 0.2 mm 0 mps 720 mmHg 83%
    05:00 +24°C° 0.2 mm 0 mps 721 mmHg 83%
    06:00 +24°C° 0.2 mm 0 mps 721 mmHg 84%
    07:00 +26°C° 0.5 mm 0 mps 721 mmHg 76%
    08:00 +30°C° 0.5 mm 1 mps 722 mmHg 69%
    09:00 +32°C° 0.5 mm 1 mps 723 mmHg 62%
    10:00 +34°C° 0.2 mm 1 mps 722 mmHg 54%
    11:00 +36°C° 0.2 mm 1 mps 722 mmHg 46%
    12:00 +37°C° 0.2 mm 1 mps 722 mmHg 37%
    13:00 +38°C° 0 mm 2 mps 721 mmHg 38%
    14:00 +37°C° 0 mm 2 mps 720 mmHg 39%
    15:00 +37°C° 0 mm 2 mps 720 mmHg 39%
    16:00 +36°C° 0 mm 2 mps 720 mmHg 43%
    17:00 +33°C° 0 mm 1 mps 720 mmHg 48%
    18:00 +32°C° 0 mm 1 mps 720 mmHg 52%
    19:00 +30°C° 0 mm 1 mps 721 mmHg 58%
    20:00 +27°C° 0 mm 0 mps 721 mmHg 63%
    21:00 +25°C° 0 mm 0 mps 722 mmHg 69%
    22:00 +25°C° 0 mm 0 mps 722 mmHg 71%
    23:00 +25°C° 0 mm 0 mps 722 mmHg 73%

    27 April, Saturday

    Time Temperature Precipitation Wind Pressure Humidity
    00:00 +24°C° 0 mm 0 mps 722 mmHg 76%
    01:00 +24°C° 0.2 mm 0 mps 721 mmHg 79%
    02:00 +24°C° 0.2 mm 0 mps 721 mmHg 82%
    03:00 +23°C° 0.2 mm 0 mps 720 mmHg 85%
    04:00 +23°C° 0.2 mm 0 mps 721 mmHg 87%
    05:00 +23°C° 0.2 mm 0 mps 721 mmHg 88%
    06:00 +23°C° 0.2 mm 0 mps 721 mmHg 89%
    07:00 +27°C° 0.1 mm 1 mps 722 mmHg 80%
    08:00 +29°C° 0.1 mm 1 mps 723 mmHg 71%
    09:00 +30°C° 0.1 mm 1 mps 723 mmHg 62%
    10:00 +32°C° 0 mm 1 mps 723 mmHg 55%
    11:00 +34°C° 0 mm 1 mps 722 mmHg 49%
    12:00 +36°C° 0 mm 1 mps 722 mmHg 42%
    13:00 +35°C° 0 mm 1 mps 721 mmHg 43%
    14:00 +36°C° 0 mm 2 mps 720 mmHg 44%
    15:00 +35°C° 0 mm 2 mps 719 mmHg 45%
    16:00 +34°C° 0.2 mm 2 mps 719 mmHg 51%
    17:00 +32°C° 0.2 mm 1 mps 720 mmHg 57%
    18:00 +30°C° 0.2 mm 1 mps 720 mmHg 62%
    19:00 +29°C° 0 mm 1 mps 720 mmHg 68%
    20:00 +26°C° 0 mm 0 mps 721 mmHg 75%
    21:00 +24°C° 0 mm 0 mps 721 mmHg 81%
    22:00 +24°C° 0 mm 0 mps 721 mmHg 83%
    23:00 +24°C° 0 mm 0 mps 721 mmHg 84%

    28 April, Sunday

    Time Temperature Precipitation Wind Pressure Humidity
    00:00 +23°C° 0 mm 0 mps 721 mmHg 86%
    01:00 +23°C° 0.1 mm 0 mps 720 mmHg 86%
    02:00 +23°C° 0.1 mm 0 mps 720 mmHg 87%
    03:00 +23°C° 0.1 mm 0 mps 720 mmHg 88%
    04:00 +23°C° 0 mm 0 mps 720 mmHg 87%
    05:00 +22°C° 0 mm 0 mps 720 mmHg 87%
    06:00 +22°C° 0 mm 0 mps 721 mmHg 87%
    07:00 +26°C° 0 mm 0 mps 721 mmHg 74%
    08:00 +29°C° 0 mm 0 mps 722 mmHg 61%
    09:00 +32°C° 0 mm 0 mps 723 mmHg 48%
    10:00 +35°C° 0 mm 1 mps 722 mmHg 43%
    11:00 +37°C° 0 mm 1 mps 722 mmHg 38%
    12:00 +39°C° 0 mm 1 mps 721 mmHg 33%
    13:00 +37°C° 0 mm 1 mps 720 mmHg 36%
    14:00 +36°C° 0 mm 1 mps 720 mmHg 38%
    15:00 +36°C° 0 mm 2 mps 719 mmHg 40%
    16:00 +35°C° 0.1 mm 2 mps 719 mmHg 48%
    17:00 +32°C° 0.1 mm 2 mps 720 mmHg 55%
    18:00 +31°C° 0.1 mm 1 mps 720 mmHg 62%
    19:00 +29°C° 0.3 mm 1 mps 720 mmHg 70%
    20:00 +28°C° 0.3 mm 1 mps 721 mmHg 78%
    21:00 +24°C° 0.3 mm 0 mps 721 mmHg 87%
    22:00 +24°C° 0.1 mm 0 mps 721 mmHg 88%
    23:00 +23°C° 0.1 mm 0 mps 721 mmHg 90%

    29 April, Monday

    Time Temperature Precipitation Wind Pressure Humidity
    00:00 +23°C° 0.1 mm 0 mps 721 mmHg 92%
    01:00 +22°C° 0 mm 0 mps 720 mmHg 92%
    02:00 +22°C° 0 mm 0 mps 720 mmHg 93%
    03:00 +22°C° 0 mm 0 mps 720 mmHg 94%
    04:00 +22°C° 0 mm 0 mps 721 mmHg 93%
    05:00 +22°C° 0 mm 0 mps 721 mmHg 92%
    06:00 +22°C° 0 mm 0 mps 721 mmHg 91%
    07:00 +26°C° 0 mm 1 mps 722 mmHg 77%
    08:00 +29°C° 0 mm 1 mps 723 mmHg 64%
    09:00 +32°C° 0 mm 1 mps 723 mmHg 51%
    10:00 +33°C° 0 mm 1 mps 723 mmHg 46%
    11:00 +35°C° 0 mm 2 mps 722 mmHg 42%
    12:00 +36°C° 0 mm 2 mps 722 mmHg 37%
    13:00 +36°C° 0 mm 2 mps 721 mmHg 39%
    14:00 +35°C° 0 mm 2 mps 721 mmHg 41%
    15:00 +35°C° 0 mm 2 mps 720 mmHg 43%
    16:00 +32°C° 0.1 mm 2 mps 720 mmHg 51%
    17:00 +30°C° 0.1 mm 2 mps 720 mmHg 59%
    18:00 +28°C° 0.1 mm 1 mps 721 mmHg 67%
    19:00 +27°C° 0 mm 1 mps 721 mmHg 74%
    20:00 +26°C° 0 mm 1 mps 722 mmHg 81%
    21:00 +25°C° 0 mm 1 mps 722 mmHg 89%
    22:00 +23°C° 0 mm 0 mps 722 mmHg 90%
    23:00 +22°C° 0 mm 0 mps 722 mmHg 92%
    Show more